owner,sensor,date,latitude,longitude,vertical_datum,direction_of_sea_water_velocity,sea_water_speed,upward_sea_water_velocity,qcFlag 
TABS,ioos:station:wmo:42046:1,2012-02-01T00:00:00Z,27.8903,-94.0367,2.0,284.2162411,1.547384891,-99999.0,'11133222,11111222,99999999' 
TABS,ioos:station:wmo:42046:1,2012-02-01T00:30:00Z,27.8903,-94.0367,2.0,312.4909568,3.553083168,-99999.0,'11133222,11111222,99999999' 
TABS,ioos:station:wmo:42046:1,2012-02-01T01:00:00Z,27.8903,-94.0367,2.0,329.4018198,3.496927223,-99999.0,'11133222,11111222,99999999' 
TABS,ioos:station:wmo:42046:1,2012-02-01T01:30:00Z,27.8903,-94.0367,2.0,307.3934657,4.380182645,-99999.0,'11133222,11111222,99999999' 
TABS,ioos:station:wmo:42046:1,2012-02-01T02:00:00Z,27.8903,-94.0367,2.0,281.9765254,1.686712779,-99999.0,'11133222,11111222,99999999' 
TABS,ioos:station:wmo:42046:1,2012-02-01T02:30:00Z,27.8903,-94.0367,2.0,276.1943114,2.595149321,-99999.0,'11133222,11111222,99999999' 
TABS,ioos:station:wmo:42046:1,2012-02-01T03:00:00Z,27.8903,-94.0367,2.0,260.3850323,1.856071119,-99999.0,'11133222,11111222,99999999' 
TABS,ioos:station:wmo:42046:1,2012-02-01T03:30:00Z,27.8903,-94.0367,2.0,274.2165122,3.128466078,-99999.0,'11133222,11111222,99999999' 
TABS,ioos:station:wmo:42046:1,2012-02-01T04:00:00Z,27.8903,-94.0367,2.0,258.5228254,3.367328318,-99999.0,'11133222,11111222,99999999' 
TABS,ioos:station:wmo:42046:1,2012-02-01T04:30:00Z,27.8903,-94.0367,2.0,300.9261358,2.587914218,-99999.0,'11133222,11111222,99999999' 
TABS,ioos:station:wmo:42046:1,2012-02-01T05:00:00Z,27.8903,-94.0367,2.0,212.242182,2.305515127,-99999.0,'11133222,11111222,99999999' 
TABS,ioos:station:wmo:42046:1,2012-02-01T05:30:00Z,27.8903,-94.0367,2.0,214.9917279,1.342721118,-99999.0,'11133222,11111222,99999999' 
TABS,ioos:station:wmo:42046:1,2012-02-01T06:00:00Z,27.8903,-94.0367,2.0,316.8479216,1.973854098,-99999.0,'11133222,11111222,99999999' 
TABS,ioos:station:wmo:42046:1,2012-02-01T06:30:00Z,27.8903,-94.0367,2.0,97.35236217,0.937709976,-99999.0,'11133222,11111222,99999999' 
TABS,ioos:station:wmo:42046:1,2012-02-01T07:00:00Z,27.8903,-94.0367,2.0,278.870956,1.750942603,-99999.0,'11133222,11111222,99999999' 
TABS,ioos:station:wmo:42046:1,2012-02-01T07:30:00Z,27.8903,-94.0367,2.0,32.00551882,0.754718491,-99999.0,'11133222,11111222,99999999' 
TABS,ioos:station:wmo:42046:1,2012-02-01T08:00:00Z,27.8903,-94.0367,2.0,281.2604613,2.253375246,-99999.0,'11133222,11111222,99999999' 
TABS,ioos:station:wmo:42046:1,2012-02-01T08:30:00Z,27.8903,-94.0367,2.0,336.1064087,5.08587259,-99999.0,'11133222,11111222,99999999' 
TABS,ioos:station:wmo:42046:1,2012-02-01T09:00:00Z,27.8903,-94.0367,2.0,345.6952885,4.654309831,-99999.0,'11133222,11111222,99999999' 
TABS,ioos:station:wmo:42046:1,2012-02-01T09:30:00Z,27.8903,-94.0367,2.0,347.7683315,9.628587643,-99999.0,'11133222,11111222,99999999' 
TABS,ioos:station:wmo:42046:1,2012-02-01T10:00:00Z,27.8903,-94.0367,2.0,349.4038615,7.558902037,-99999.0,'11133222,11111222,99999999' 
TABS,ioos:station:wmo:42046:1,2012-02-01T10:30:00Z,27.8903,-94.0367,2.0,351.2467838,5.979648819,-99999.0,'11133222,11111222,99999999' 
TABS,ioos:station:wmo:42046:1,2012-02-01T11:00:00Z,27.8903,-94.0367,2.0,4.831897044,6.292360447,-99999.0,'11133222,11111222,99999999' 
TABS,ioos:station:wmo:42046:1,2012-02-01T11:30:00Z,27.8903,-94.0367,2.0,348.8302392,7.226901134,-99999.0,'11133222,11111222,99999999' 
TABS,ioos:station:wmo:42046:1,2012-02-01T12:00:00Z,27.8903,-94.0367,2.0,1.868665504,7.974239776,-99999.0,'11133222,11111222,99999999' 
TABS,ioos:station:wmo:42046:1,2012-02-01T12:30:00Z,27.8903,-94.0367,2.0,344.1781742,6.381786584,-99999.0,'11133222,11111222,99999999' 
TABS,ioos:station:wmo:42046:1,2012-02-01T13:00:00Z,27.8903,-94.0367,2.0,3.034872608,9.633509226,-99999.0,'11133222,11111222,99999999' 
TABS,ioos:station:wmo:42046:1,2012-02-01T13:30:00Z,27.8903,-94.0367,2.0,2.21389796,5.954443719,-99999.0,'11133222,11111222,99999999' 
TABS,ioos:station:wmo:42046:1,2012-02-01T14:00:00Z,27.8903,-94.0367,2.0,352.9947633,4.755502077,-99999.0,'11133222,11111222,99999999' 
TABS,ioos:station:wmo:42046:1,2012-02-01T14:30:00Z,27.8903,-94.0367,2.0,348.9145125,5.512866768,-99999.0,'11133222,11111222,99999999' 
TABS,ioos:station:wmo:42046:1,2012-02-01T15:00:00Z,27.8903,-94.0367,2.0,338.6182088,4.059408824,-99999.0,'11133222,11111222,99999999' 
TABS,ioos:station:wmo:42046:1,2012-02-01T15:30:00Z,27.8903,-94.0367,2.0,333.9000846,4.40967119,-99999.0,'11133222,11111222,99999999' 
TABS,ioos:station:wmo:42046:1,2012-02-01T16:00:00Z,27.8903,-94.0367,2.0,345.2105663,4.426657882,-99999.0,'11133222,11111222,99999999' 
TABS,ioos:station:wmo:42046:1,2012-02-01T16:30:00Z,27.8903,-94.0367,2.0,350.8084101,5.571543772,-99999.0,'11133222,11111222,99999999' 
TABS,ioos:station:wmo:42046:1,2012-02-01T17:00:00Z,27.8903,-94.0367,2.0,335.1984828,4.505574325,-99999.0,'11133222,11111222,99999999' 
TABS,ioos:station:wmo:42046:1,2012-02-01T17:30:00Z,27.8903,-94.0367,2.0,327.0744271,6.862251817,-99999.0,'11133222,11111222,99999999' 
TABS,ioos:station:wmo:42046:1,2012-02-01T18:00:00Z,27.8903,-94.0367,2.0,345.3350506,7.070339454,-99999.0,'11133222,11111222,99999999' 
TABS,ioos:station:wmo:42046:1,2012-02-01T18:30:00Z,27.8903,-94.0367,2.0,348.5996468,7.436733154,-99999.0,'11133222,11111222,99999999' 
TABS,ioos:station:wmo:42046:1,2012-02-01T19:00:00Z,27.8903,-94.0367,2.0,349.9633315,5.737813172,-99999.0,'11133222,11111222,99999999' 
TABS,ioos:station:wmo:42046:1,2012-02-01T19:30:00Z,27.8903,-94.0367,2.0,329.4969279,7.683384671,-99999.0,'11133222,11111222,99999999' 
TABS,ioos:station:wmo:42046:1,2012-02-01T20:00:00Z,27.8903,-94.0367,2.0,335.8129135,6.467804883,-99999.0,'11133222,11111222,99999999' 
TABS,ioos:station:wmo:42046:1,2012-02-01T20:30:00Z,27.8903,-94.0367,2.0,341.6755592,4.93,-99999.0,'11133222,11111222,99999999' 
TABS,ioos:station:wmo:42046:1,2012-02-01T21:00:00Z,27.8903,-94.0367,2.0,334.2342065,5.452063829,-99999.0,'11133222,11111222,99999999' 
TABS,ioos:station:wmo:42046:1,2012-02-01T21:30:00Z,27.8903,-94.0367,2.0,341.5354166,6.062087099,-99999.0,'11133222,11111222,99999999' 
TABS,ioos:station:wmo:42046:1,2012-02-01T22:00:00Z,27.8903,-94.0367,2.0,329.7602635,5.023594331,-99999.0,'11133222,11111222,99999999' 
TABS,ioos:station:wmo:42046:1,2012-02-01T22:30:00Z,27.8903,-94.0367,2.0,322.9510705,5.112025039,-99999.0,'11133222,11111222,99999999' 
TABS,ioos:station:wmo:42046:1,2012-02-01T23:00:00Z,27.8903,-94.0367,2.0,324.7724529,5.374206918,-99999.0,'11133222,11111222,99999999' 
TABS,ioos:station:wmo:42046:1,2012-02-01T23:30:00Z,27.8903,-94.0367,2.0,289.1265819,4.455973519,-99999.0,'11133222,11111222,99999999' 
TABS,ioos:station:wmo:42046:1,2012-02-02T00:00:00Z,27.8903,-94.0367,2.0,293.4625488,3.139570034,-99999.0,'11133222,11111222,99999999' 
TABS,ioos:station:wmo:42046:1,2012-02-02T00:30:00Z,27.8903,-94.0367,2.0,253.4952563,1.689615341,-99999.0,'11133222,11111222,99999999' 
TABS,ioos:station:wmo:42046:1,2012-02-02T01:00:00Z,27.8903,-94.0367,2.0,270.3259609,1.760028409,-99999.0,'11133222,11111222,99999999' 
TABS,ioos:station:wmo:42046:1,2012-02-02T01:30:00Z,27.8903,-94.0367,2.0,237.6029694,2.948982876,-99999.0,'11133222,11111222,99999999' 
TABS,ioos:station:wmo:42046:1,2012-02-02T02:00:00Z,27.8903,-94.0367,2.0,292.0080016,3.095561338,-99999.0,'11133222,11111222,99999999' 
TABS,ioos:station:wmo:42046:1,2012-02-02T02:30:00Z,27.8903,-94.0367,2.0,284.0805363,3.165090836,-99999.0,'11133222,11111222,99999999' 
TABS,ioos:station:wmo:42046:1,2012-02-02T03:00:00Z,27.8903,-94.0367,2.0,305.2828466,6.786604453,-99999.0,'11133222,11111222,99999999' 
TABS,ioos:station:wmo:42046:1,2012-02-02T03:30:00Z,27.8903,-94.0367,2.0,308.1849038,4.707239106,-99999.0,'11133222,11111222,99999999' 
TABS,ioos:station:wmo:42046:1,2012-02-02T04:00:00Z,27.8903,-94.0367,2.0,315.7213264,7.304991444,-99999.0,'11133222,11111222,99999999' 
TABS,ioos:station:wmo:42046:1,2012-02-02T04:30:00Z,27.8903,-94.0367,2.0,302.0494775,8.329465769,-99999.0,'11133222,11111222,99999999' 
TABS,ioos:station:wmo:42046:1,2012-02-02T05:00:00Z,27.8903,-94.0367,2.0,301.7793521,8.316808282,-99999.0,'11133222,11111222,99999999' 
TABS,ioos:station:wmo:42046:1,2012-02-02T05:30:00Z,27.8903,-94.0367,2.0,294.6662502,5.127884554,-99999.0,'11133222,11111222,99999999' 
TABS,ioos:station:wmo:42046:1,2012-02-02T06:00:00Z,27.8903,-94.0367,2.0,289.4454726,6.278096845,-99999.0,'11133222,11111222,99999999' 
TABS,ioos:station:wmo:42046:1,2012-02-02T06:30:00Z,27.8903,-94.0367,2.0,279.7016648,5.518921996,-99999.0,'11133222,11111222,99999999' 
TABS,ioos:station:wmo:42046:1,2012-02-02T07:00:00Z,27.8903,-94.0367,2.0,288.3175153,4.61377286,-99999.0,'11133222,11111222,99999999' 
TABS,ioos:station:wmo:42046:1,2012-02-02T07:30:00Z,27.8903,-94.0367,2.0,294.5809398,5.5532513,-99999.0,'11133222,11111222,99999999' 
TABS,ioos:station:wmo:42046:1,2012-02-02T08:00:00Z,27.8903,-94.0367,2.0,236.2080024,4.692771036,-99999.0,'11133222,11111222,99999999' 
TABS,ioos:station:wmo:42046:1,2012-02-02T08:30:00Z,27.8903,-94.0367,2.0,258.1422033,4.720730876,-99999.0,'11133222,11111222,99999999' 
TABS,ioos:station:wmo:42046:1,2012-02-02T09:00:00Z,27.8903,-94.0367,2.0,254.1194774,7.236159202,-99999.0,'11133222,11111222,99999999' 
TABS,ioos:station:wmo:42046:1,2012-02-02T09:30:00Z,27.8903,-94.0367,2.0,266.1210636,7.096252532,-99999.0,'11133222,11111222,99999999' 
TABS,ioos:station:wmo:42046:1,2012-02-02T10:00:00Z,27.8903,-94.0367,2.0,278.3700794,8.793656805,-99999.0,'11133222,11111222,99999999' 
TABS,ioos:station:wmo:42046:1,2012-02-02T10:30:00Z,27.8903,-94.0367,2.0,262.1843038,7.721722606,-99999.0,'11133222,11111222,99999999' 
TABS,ioos:station:wmo:42046:1,2012-02-02T11:00:00Z,27.8903,-94.0367,2.0,270.5692952,7.050347509,-99999.0,'11133222,11111222,99999999' 
TABS,ioos:station:wmo:42046:1,2012-02-02T11:30:00Z,27.8903,-94.0367,2.0,269.6871741,9.170136313,-99999.0,'11133222,11111222,99999999' 
TABS,ioos:station:wmo:42046:1,2012-02-02T12:00:00Z,27.8903,-94.0367,2.0,267.6527103,12.2102416,-99999.0,'11111222,11111222,99999999' 
TABS,ioos:station:wmo:42046:1,2012-02-02T12:30:00Z,27.8903,-94.0367,2.0,278.1708087,14.07284264,-99999.0,'11111222,11111222,99999999' 
TABS,ioos:station:wmo:42046:1,2012-02-02T13:00:00Z,27.8903,-94.0367,2.0,279.4987296,15.69517442,-99999.0,'11111222,11111222,99999999' 
TABS,ioos:station:wmo:42046:1,2012-02-02T13:30:00Z,27.8903,-94.0367,2.0,284.6010583,15.51090584,-99999.0,'11111222,11111222,99999999' 
TABS,ioos:station:wmo:42046:1,2012-02-02T14:00:00Z,27.8903,-94.0367,2.0,288.2661709,14.99558602,-99999.0,'11111222,11111222,99999999' 
TABS,ioos:station:wmo:42046:1,2012-02-02T14:30:00Z,27.8903,-94.0367,2.0,279.1026101,15.1710382,-99999.0,'11111222,11111222,99999999' 
TABS,ioos:station:wmo:42046:1,2012-02-02T15:00:00Z,27.8903,-94.0367,2.0,281.9297152,18.14180256,-99999.0,'11111222,11111222,99999999' 
TABS,ioos:station:wmo:42046:1,2012-02-02T15:30:00Z,27.8903,-94.0367,2.0,272.8515835,15.27891357,-99999.0,'11111222,11111222,99999999' 
TABS,ioos:station:wmo:42046:1,2012-02-02T16:00:00Z,27.8903,-94.0367,2.0,266.1772283,13.80069926,-99999.0,'11111222,11111222,99999999' 
TABS,ioos:station:wmo:42046:1,2012-02-02T16:30:00Z,27.8903,-94.0367,2.0,267.6049746,16.51442097,-99999.0,'11111222,11111222,99999999' 
TABS,ioos:station:wmo:42046:1,2012-02-02T17:00:00Z,27.8903,-94.0367,2.0,270.8261956,20.12208985,-99999.0,'11111222,11111222,99999999' 
TABS,ioos:station:wmo:42046:1,2012-02-02T17:30:00Z,27.8903,-94.0367,2.0,272.3193375,17.79457221,-99999.0,'11111222,11111222,99999999' 
TABS,ioos:station:wmo:42046:1,2012-02-02T18:00:00Z,27.8903,-94.0367,2.0,267.6478385,20.22703636,-99999.0,'11111222,11111222,99999999' 
TABS,ioos:station:wmo:42046:1,2012-02-02T18:30:00Z,27.8903,-94.0367,2.0,267.701412,21.19704932,-99999.0,'11111222,11111222,99999999' 
TABS,ioos:station:wmo:42046:1,2012-02-02T19:00:00Z,27.8903,-94.0367,2.0,261.8384075,20.85116783,-99999.0,'11111222,11111222,99999999' 
TABS,ioos:station:wmo:42046:1,2012-02-02T19:30:00Z,27.8903,-94.0367,2.0,265.4470017,21.41757456,-99999.0,'11111222,11111222,99999999' 
TABS,ioos:station:wmo:42046:1,2012-02-02T20:00:00Z,27.8903,-94.0367,2.0,260.1053648,20.71814905,-99999.0,'11111222,11111222,99999999' 
TABS,ioos:station:wmo:42046:1,2012-02-02T20:30:00Z,27.8903,-94.0367,2.0,263.2504201,23.82510441,-99999.0,'11111222,11111222,99999999' 
TABS,ioos:station:wmo:42046:1,2012-02-02T21:00:00Z,27.8903,-94.0367,2.0,270.1190944,24.14005178,-99999.0,'11111222,11111222,99999999' 
TABS,ioos:station:wmo:42046:1,2012-02-02T21:30:00Z,27.8903,-94.0367,2.0,273.9838561,19.57729552,-99999.0,'11111222,11111222,99999999' 
TABS,ioos:station:wmo:42046:1,2012-02-02T22:00:00Z,27.8903,-94.0367,2.0,267.9552807,18.50177559,-99999.0,'11111222,11111222,99999999' 
TABS,ioos:station:wmo:42046:1,2012-02-02T22:30:00Z,27.8903,-94.0367,2.0,274.322868,18.44245645,-99999.0,'11111222,11111222,99999999' 
TABS,ioos:station:wmo:42046:1,2012-02-02T23:00:00Z,27.8903,-94.0367,2.0,271.1274931,20.84403272,-99999.0,'11111222,11111222,99999999' 
TABS,ioos:station:wmo:42046:1,2012-02-02T23:30:00Z,27.8903,-94.0367,2.0,275.6082926,18.31766907,-99999.0,'11111222,11111222,99999999' 
TABS,ioos:station:wmo:42046:1,2012-02-03T00:00:00Z,27.8903,-94.0367,2.0,281.8750027,18.90455236,-99999.0,'11111222,11111222,99999999' 
TABS,ioos:station:wmo:42046:1,2012-02-03T00:30:00Z,27.8903,-94.0367,2.0,285.4314368,17.13779449,-99999.0,'11111222,11111222,99999999' 
TABS,ioos:station:wmo:42046:1,2012-02-03T01:00:00Z,27.8903,-94.0367,2.0,291.0646758,16.88853161,-99999.0,'11111222,11111222,99999999' 
TABS,ioos:station:wmo:42046:1,2012-02-03T01:30:00Z,27.8903,-94.0367,2.0,300.8561134,16.37814397,-99999.0,'11111222,11111222,99999999' 
TABS,ioos:station:wmo:42046:1,2012-02-03T02:00:00Z,27.8903,-94.0367,2.0,307.8975624,18.07090479,-99999.0,'11111222,11111222,99999999' 
TABS,ioos:station:wmo:42046:1,2012-02-03T02:30:00Z,27.8903,-94.0367,2.0,318.3952313,18.38876287,-99999.0,'11111222,11111222,99999999' 
TABS,ioos:station:wmo:42046:1,2012-02-03T03:00:00Z,27.8903,-94.0367,2.0,330.0168103,20.85041966,-99999.0,'11111222,11111222,99999999' 
TABS,ioos:station:wmo:42046:1,2012-02-03T03:30:00Z,27.8903,-94.0367,2.0,337.4107658,23.22154172,-99999.0,'11111222,11111222,99999999' 
TABS,ioos:station:wmo:42046:1,2012-02-03T04:00:00Z,27.8903,-94.0367,2.0,346.1224368,23.68126897,-99999.0,'11111222,11111222,99999999' 
TABS,ioos:station:wmo:42046:1,2012-02-03T04:30:00Z,27.8903,-94.0367,2.0,345.9746072,26.20112402,-99999.0,'11111222,11111222,99999999' 
TABS,ioos:station:wmo:42046:1,2012-02-03T05:00:00Z,27.8903,-94.0367,2.0,349.8202495,25.85705706,-99999.0,'11111222,11111222,99999999' 
TABS,ioos:station:wmo:42046:1,2012-02-03T05:30:00Z,27.8903,-94.0367,2.0,349.1574166,23.81517373,-99999.0,'11111222,11111222,99999999' 
TABS,ioos:station:wmo:42046:1,2012-02-03T06:00:00Z,27.8903,-94.0367,2.0,352.4666043,22.95817284,-99999.0,'11111222,11111222,99999999' 
TABS,ioos:station:wmo:42046:1,2012-02-03T06:30:00Z,27.8903,-94.0367,2.0,347.839365,21.78894444,-99999.0,'11111222,11111222,99999999' 
TABS,ioos:station:wmo:42046:1,2012-02-03T07:00:00Z,27.8903,-94.0367,2.0,353.0050345,21.34891332,-99999.0,'11111222,11111222,99999999' 
TABS,ioos:station:wmo:42046:1,2012-02-03T07:30:00Z,27.8903,-94.0367,2.0,346.9896435,16.12392632,-99999.0,'11111222,11111222,99999999' 
TABS,ioos:station:wmo:42046:1,2012-02-03T08:00:00Z,27.8903,-94.0367,2.0,341.2410315,17.87980425,-99999.0,'11111222,11111222,99999999' 
TABS,ioos:station:wmo:42046:1,2012-02-03T08:30:00Z,27.8903,-94.0367,2.0,347.5689802,17.8382174,-99999.0,'11111222,11111222,99999999' 
TABS,ioos:station:wmo:42046:1,2012-02-03T09:00:00Z,27.8903,-94.0367,2.0,350.6919158,17.12550437,-99999.0,'11111222,11111222,99999999' 
TABS,ioos:station:wmo:42046:1,2012-02-03T09:30:00Z,27.8903,-94.0367,2.0,345.2703818,17.0296741,-99999.0,'11111222,11111222,99999999' 
TABS,ioos:station:wmo:42046:1,2012-02-03T10:00:00Z,27.8903,-94.0367,2.0,341.0398681,16.89676004,-99999.0,'11111222,11111222,99999999' 
TABS,ioos:station:wmo:42046:1,2012-02-03T10:30:00Z,27.8903,-94.0367,2.0,340.0242668,13.75772147,-99999.0,'11111222,11111222,99999999' 
TABS,ioos:station:wmo:42046:1,2012-02-03T11:00:00Z,27.8903,-94.0367,2.0,350.2328401,12.96797594,-99999.0,'11111222,11111222,99999999' 
TABS,ioos:station:wmo:42046:1,2012-02-03T11:30:00Z,27.8903,-94.0367,2.0,338.2212389,14.25768915,-99999.0,'11111222,11111222,99999999' 
TABS,ioos:station:wmo:42046:1,2012-02-03T12:00:00Z,27.8903,-94.0367,2.0,349.5284,13.81001448,-99999.0,'11111222,11111222,99999999' 
TABS,ioos:station:wmo:42046:1,2012-02-03T12:30:00Z,27.8903,-94.0367,2.0,335.4472644,12.61025376,-99999.0,'11111222,11111222,99999999' 
TABS,ioos:station:wmo:42046:1,2012-02-03T13:00:00Z,27.8903,-94.0367,2.0,343.7212408,14.62640079,-99999.0,'11111222,11111222,99999999' 
TABS,ioos:station:wmo:42046:1,2012-02-03T13:30:00Z,27.8903,-94.0367,2.0,346.1759433,15.73581901,-99999.0,'11111222,11111222,99999999' 
TABS,ioos:station:wmo:42046:1,2012-02-03T14:00:00Z,27.8903,-94.0367,2.0,334.342999,15.24295247,-99999.0,'11111222,11111222,99999999' 
TABS,ioos:station:wmo:42046:1,2012-02-03T14:30:00Z,27.8903,-94.0367,2.0,336.1745507,14.03618538,-99999.0,'11111222,11111222,99999999' 
TABS,ioos:station:wmo:42046:1,2012-02-03T15:00:00Z,27.8903,-94.0367,2.0,339.0959005,13.28441568,-99999.0,'11111222,11111222,99999999' 
TABS,ioos:station:wmo:42046:1,2012-02-03T15:30:00Z,27.8903,-94.0367,2.0,349.5598908,15.50672757,-99999.0,'11111222,11111222,99999999' 
TABS,ioos:station:wmo:42046:1,2012-02-03T16:00:00Z,27.8903,-94.0367,2.0,339.6063066,14.89354558,-99999.0,'11111222,11111222,99999999' 
TABS,ioos:station:wmo:42046:1,2012-02-03T16:30:00Z,27.8903,-94.0367,2.0,347.8497209,13.63546112,-99999.0,'11111222,11111222,99999999' 
TABS,ioos:station:wmo:42046:1,2012-02-03T17:00:00Z,27.8903,-94.0367,2.0,346.8910329,15.74019695,-99999.0,'11111222,11111222,99999999' 
TABS,ioos:station:wmo:42046:1,2012-02-03T17:30:00Z,27.8903,-94.0367,2.0,343.4039794,14.38944752,-99999.0,'11111222,11111222,99999999' 
TABS,ioos:station:wmo:42046:1,2012-02-03T18:00:00Z,27.8903,-94.0367,2.0,345.2586046,15.16932761,-99999.0,'11111222,11111222,99999999' 
TABS,ioos:station:wmo:42046:1,2012-02-03T18:30:00Z,27.8903,-94.0367,2.0,341.9425201,12.96878175,-99999.0,'11111222,11111222,99999999' 
TABS,ioos:station:wmo:42046:1,2012-02-03T19:00:00Z,27.8903,-94.0367,2.0,344.0686997,11.366587,-99999.0,'11111222,11111222,99999999' 
TABS,ioos:station:wmo:42046:1,2012-02-03T19:30:00Z,27.8903,-94.0367,2.0,333.2993695,7.544514564,-99999.0,'11133222,11111222,99999999' 
TABS,ioos:station:wmo:42046:1,2012-02-03T20:00:00Z,27.8903,-94.0367,2.0,328.950075,9.092865335,-99999.0,'11133222,11111222,99999999' 
TABS,ioos:station:wmo:42046:1,2012-02-03T20:30:00Z,27.8903,-94.0367,2.0,301.2259446,8.256028101,-99999.0,'11133222,11111222,99999999' 
TABS,ioos:station:wmo:42046:1,2012-02-03T21:00:00Z,27.8903,-94.0367,2.0,293.4041993,9.163934744,-99999.0,'11133222,11111222,99999999' 
TABS,ioos:station:wmo:42046:1,2012-02-03T21:30:00Z,27.8903,-94.0367,2.0,308.0554095,9.766089289,-99999.0,'11133222,11111222,99999999' 
TABS,ioos:station:wmo:42046:1,2012-02-03T22:00:00Z,27.8903,-94.0367,2.0,299.3897515,14.79390753,-99999.0,'11111222,11111222,99999999' 
TABS,ioos:station:wmo:42046:1,2012-02-03T22:30:00Z,27.8903,-94.0367,2.0,296.7392082,13.26888842,-99999.0,'11111222,11111222,99999999' 
TABS,ioos:station:wmo:42046:1,2012-02-03T23:00:00Z,27.8903,-94.0367,2.0,285.4802485,13.8628857,-99999.0,'11111222,11111222,99999999' 
TABS,ioos:station:wmo:42046:1,2012-02-03T23:30:00Z,27.8903,-94.0367,2.0,295.8125793,13.27444537,-99999.0,'11111222,11111222,99999999' 
TABS,ioos:station:wmo:42046:1,2012-02-04T00:00:00Z,27.8903,-94.0367,2.0,283.5538145,14.6787772,-99999.0,'11111222,11111222,99999999' 
TABS,ioos:station:wmo:42046:1,2012-02-04T00:30:00Z,27.8903,-94.0367,2.0,281.0494988,16.80144339,-99999.0,'11111222,11111222,99999999' 
TABS,ioos:station:wmo:42046:1,2012-02-04T01:00:00Z,27.8903,-94.0367,2.0,289.4003216,14.27022074,-99999.0,'11111222,11111222,99999999' 
TABS,ioos:station:wmo:42046:1,2012-02-04T01:30:00Z,27.8903,-94.0367,2.0,284.1068253,15.8375882,-99999.0,'11111222,11111222,99999999' 
TABS,ioos:station:wmo:42046:1,2012-02-04T02:00:00Z,27.8903,-94.0367,2.0,287.0293862,17.1415431,-99999.0,'11111222,11111222,99999999' 
TABS,ioos:station:wmo:42046:1,2012-02-04T02:30:00Z,27.8903,-94.0367,2.0,288.7316343,20.17876359,-99999.0,'11111222,11111222,99999999' 
TABS,ioos:station:wmo:42046:1,2012-02-04T03:00:00Z,27.8903,-94.0367,2.0,291.0804596,19.32313122,-99999.0,'11111222,11111222,99999999' 
TABS,ioos:station:wmo:42046:1,2012-02-04T03:30:00Z,27.8903,-94.0367,2.0,294.9168019,20.67429805,-99999.0,'11111222,11111222,99999999' 
TABS,ioos:station:wmo:42046:1,2012-02-04T04:00:00Z,27.8903,-94.0367,2.0,295.7438393,19.96119485,-99999.0,'11111222,11111222,99999999' 
TABS,ioos:station:wmo:42046:1,2012-02-04T04:30:00Z,27.8903,-94.0367,2.0,294.8640593,20.33482235,-99999.0,'11111222,11111222,99999999' 
TABS,ioos:station:wmo:42046:1,2012-02-04T05:00:00Z,27.8903,-94.0367,2.0,301.5968626,17.08230078,-99999.0,'11111222,11111222,99999999' 
TABS,ioos:station:wmo:42046:1,2012-02-04T05:30:00Z,27.8903,-94.0367,2.0,298.327573,17.59723274,-99999.0,'11111222,11111222,99999999' 
TABS,ioos:station:wmo:42046:1,2012-02-04T06:00:00Z,27.8903,-94.0367,2.0,298.790062,17.85728143,-99999.0,'11111222,11111222,99999999' 
TABS,ioos:station:wmo:42046:1,2012-02-04T06:30:00Z,27.8903,-94.0367,2.0,294.3176088,14.59486554,-99999.0,'11111222,11111222,99999999' 
TABS,ioos:station:wmo:42046:1,2012-02-04T07:00:00Z,27.8903,-94.0367,2.0,296.4321202,13.4566935,-99999.0,'11111222,11111222,99999999' 
TABS,ioos:station:wmo:42046:1,2012-02-04T07:30:00Z,27.8903,-94.0367,2.0,295.3504531,13.92041666,-99999.0,'11111222,11111222,99999999' 
TABS,ioos:station:wmo:42046:1,2012-02-04T08:00:00Z,27.8903,-94.0367,2.0,299.0038708,11.98275845,-99999.0,'11111222,11111222,99999999' 
TABS,ioos:station:wmo:42046:1,2012-02-04T08:30:00Z,27.8903,-94.0367,2.0,297.2445291,12.45130114,-99999.0,'11111222,11111222,99999999' 
TABS,ioos:station:wmo:42046:1,2012-02-04T09:00:00Z,27.8903,-94.0367,2.0,287.9001392,12.52632827,-99999.0,'11111222,11111222,99999999' 
TABS,ioos:station:wmo:42046:1,2012-02-04T09:30:00Z,27.8903,-94.0367,2.0,287.8888994,8.9528152,-99999.0,'11133222,11111222,99999999' 
TABS,ioos:station:wmo:42046:1,2012-02-04T10:00:00Z,27.8903,-94.0367,2.0,297.4229429,12.55021912,-99999.0,'11111222,11111222,99999999' 
TABS,ioos:station:wmo:42046:1,2012-02-04T10:30:00Z,27.8903,-94.0367,2.0,297.3194928,14.27182189,-99999.0,'11111222,11111222,99999999' 
TABS,ioos:station:wmo:42046:1,2012-02-04T11:00:00Z,27.8903,-94.0367,2.0,298.1558971,10.9564821,-99999.0,'11111222,11111222,99999999' 
TABS,ioos:station:wmo:42046:1,2012-02-04T11:30:00Z,27.8903,-94.0367,2.0,299.9050297,12.89718186,-99999.0,'11111222,11111222,99999999' 
TABS,ioos:station:wmo:42046:1,2012-02-04T12:00:00Z,27.8903,-94.0367,2.0,298.9713749,13.31634334,-99999.0,'11111222,11111222,99999999' 
TABS,ioos:station:wmo:42046:1,2012-02-04T12:30:00Z,27.8903,-94.0367,2.0,295.3122083,13.49566227,-99999.0,'11111222,11111222,99999999' 
TABS,ioos:station:wmo:42046:1,2012-02-04T13:00:00Z,27.8903,-94.0367,2.0,303.9237919,12.25620251,-99999.0,'11111222,11111222,99999999' 
TABS,ioos:station:wmo:42046:1,2012-02-04T13:30:00Z,27.8903,-94.0367,2.0,302.5836111,10.19451813,-99999.0,'11111222,11111222,99999999' 
TABS,ioos:station:wmo:42046:1,2012-02-04T14:00:00Z,27.8903,-94.0367,2.0,307.6318916,8.876784328,-99999.0,'11133222,11111222,99999999' 
TABS,ioos:station:wmo:42046:1,2012-02-04T14:30:00Z,27.8903,-94.0367,2.0,290.5239449,10.32537166,-99999.0,'11111222,11111222,99999999' 
TABS,ioos:station:wmo:42046:1,2012-02-04T15:00:00Z,27.8903,-94.0367,2.0,308.2929847,9.5049303,-99999.0,'11133222,11111222,99999999' 
TABS,ioos:station:wmo:42046:1,2012-02-04T15:30:00Z,27.8903,-94.0367,2.0,302.6403513,13.01545235,-99999.0,'11111222,11111222,99999999' 
TABS,ioos:station:wmo:42046:1,2012-02-04T16:00:00Z,27.8903,-94.0367,2.0,311.6084509,11.23439362,-99999.0,'11111222,11111222,99999999' 